Location: Santa Maria di Sala
(45.5070°N, 12.0300°E)
Time: 14:40:27
(UTC+02:00)

Envisat - Pass Details

Date: 16 April 2024
Orbit: 762 x 764 km, 98.3° (Epoch: 26 May)

Event Time Altitude Azimuth Distance (km) Brightness Sun altitude
Rises 05:07:22 0° 9° (N) 3,240 6.8 -13.2°
Reaches altitude 10° 05:09:43 10° 5° (N) 2,309 6.0 -12.9°
Maximum altitude 05:14:39 53° 289° (WNW) 934 3.2 -12.1°
Enters shadow 05:19:17 12° 214° (SW) 2,183 4.8 -11.4°
